Weather History for KSPW - August, 2014

Change the Weather History Date:

Friday, August 29, 2014

  Actual Average Record
Temperature  
Mean Temperature 70 °F -  
Max Temperature 73 °F 82 °F 96 °F (1970)
Min Temperature 66 °F 57 °F 40 °F (1988)
Cooling Degree Days 4    
Growing Degree Days 20 (Base 50)    
Moisture  
Dew Point 67 °F    
Average Humidity 90    
Maximum Humidity 96    
Minimum Humidity 81    
Precipitation  
Precipitation 0.23 in - - ()
Sea Level Pressure  
Sea Level Pressure 29.79 in    
Wind  
Wind Speed 9 mph (SW)    
Max Wind Speed 22 mph    
Max Gust Speed 29 mph    
Visibility 9 miles    
Events Rain , Thunderstorm    
Averages and records for this station are not official NWS values.
T = Trace of Precipitation, MM = Missing Value Source: NWS Daily Summary

Daily Weather History Graph

Daily Weather History Graph

Search for Another Location

Airport or City:

Trip Planner

Search our weather history database for the weather conditions in past years. The results will help you decide how hot, cold, wet, or windy it might be!

Date:

Astronomy

Aug. 29, 2014 Rise Set
Actual Time 6:41 AM CDT 8:00 PM CDT
Civil Twilight 6:12 AM CDT 8:30 PM CDT
Nautical Twilight 5:36 AM CDT 9:05 PM CDT
Astronomical Twilight 4:59 AM CDT 9:42 PM CDT
Moon 10:39 AM CDT (8/29) 9:51 PM CDT (8/29)
Length of Visible Light 14h 17m
Length of Day
13h 19m
Waxing Crescent, 15% of the Moon is Illuminated
Aug 29
Waxing Crescent
Sep 2
First Quarter
Sep 8
Full
Sep 15
Last Quarter
Sep 24
New

Hourly Weather History & Observations

Time (CDT) Temp. Dew Point Humidity Pressure Visibility Wind Dir Wind Speed Gust Speed Precip Events Conditions
12:53 AM 73.0 °F 71.1 °F 93% 29.83 in 5.0 mi SE 11.5 mph - N/A   Overcast
1:53 AM 72.0 °F 70.0 °F 93% 29.82 in 9.0 mi SSE 11.5 mph - N/A   Overcast
2:53 AM 70.0 °F 66.9 °F 90% 29.81 in 10.0 mi SSE 8.1 mph - N/A   Overcast
3:53 AM 68.0 °F 64.9 °F 90% 29.79 in 10.0 mi SSE 10.4 mph - N/A   Partly Cloudy
4:53 AM 66.9 °F 64.0 °F 90% 29.79 in 10.0 mi SSE 11.5 mph - N/A   Clear
5:53 AM 66.9 °F 64.9 °F 93% 29.79 in 10.0 mi South 8.1 mph - N/A   Clear
6:53 AM 68.0 °F 66.0 °F 93% 29.78 in 10.0 mi South 5.8 mph - N/A   Clear
7:53 AM 69.1 °F 66.0 °F 90% 29.80 in 10.0 mi SSW 8.1 mph - N/A   Clear
8:53 AM 70.0 °F 66.0 °F 87% 29.79 in 9.0 mi South 10.4 mph - 0.00 in Rain Light Rain
9:53 AM 70.0 °F 66.0 °F 87% 29.80 in 10.0 mi South 10.4 mph - 0.00 in   Mostly Cloudy
10:53 AM 70.0 °F 66.9 °F 90% 29.80 in 9.0 mi SSW 9.2 mph - 0.01 in Rain Light Rain
11:10 AM 70.0 °F 66.9 °F 90% 29.82 in 8.0 mi SSW 9.2 mph - 0.00 in Rain Light Rain
11:53 AM 71.1 °F 68.0 °F 90% 29.80 in 7.0 mi SSW 8.1 mph - 0.02 in Rain Light Rain
12:12 PM 71.1 °F 68.0 °F 90% 29.82 in 8.0 mi South 4.6 mph - 0.00 in Rain Light Rain
12:23 PM 71.1 °F 68.0 °F 90% 29.82 in 8.0 mi SSW 6.9 mph - 0.00 in Rain Light Rain
12:53 PM 73.0 °F 70.0 °F 90% 29.79 in 9.0 mi SSW 8.1 mph - 0.01 in   Mostly Cloudy
1:20 PM 73.0 °F 69.1 °F 87% 29.81 in 10.0 mi SW 11.5 mph - N/A   Overcast
1:53 PM 73.0 °F 68.0 °F 84% 29.79 in 10.0 mi SW 11.5 mph - N/A   Overcast
2:51 PM 71.6 °F 69.8 °F 94% 29.81 in 2.0 mi WSW 8.1 mph - 0.09 in Rain Rain
2:53 PM 72.0 °F 69.1 °F 91% 29.79 in 2.0 mi WSW 8.1 mph - 0.09 in Rain , Thunderstorm Rain
3:02 PM 71.1 °F 69.1 °F 93% 29.81 in 2.0 mi WSW 17.3 mph 24.2 mph 0.05 in Rain , Thunderstorm Heavy Rain
3:12 PM 69.1 °F 64.9 °F 87% 29.80 in 7.0 mi West 21.9 mph 28.8 mph 0.06 in Rain , Thunderstorm Light Rain
3:32 PM 69.1 °F 64.9 °F 87% 29.76 in 10.0 mi WNW 12.7 mph - 0.07 in Rain Light Rain
3:53 PM 70.0 °F 66.0 °F 87% 29.75 in 10.0 mi WNW 6.9 mph - 0.07 in   Mostly Cloudy
4:53 PM 73.0 °F 66.9 °F 81% 29.76 in 10.0 mi WNW 10.4 mph - N/A   Partly Cloudy
5:53 PM 72.0 °F 66.0 °F 81% 29.77 in 10.0 mi West 3.5 mph - N/A   Mostly Cloudy
6:53 PM 70.0 °F 66.9 °F 90% 29.76 in 10.0 mi West 3.5 mph - N/A   Overcast
7:53 PM 68.0 °F 66.9 °F 96% 29.77 in 10.0 mi WNW 3.5 mph - 0.02 in Rain Light Rain
8:53 PM 66.9 °F 64.9 °F 93% 29.76 in 10.0 mi SSE 3.5 mph - 0.01 in   Scattered Clouds
9:53 PM 66.9 °F 64.9 °F 93% 29.79 in 10.0 mi SW 3.5 mph - N/A   Scattered Clouds
10:53 PM 66.9 °F 64.9 °F 93% 29.80 in 10.0 mi West 3.5 mph - 0.00 in   Mostly Cloudy
11:53 PM 66.0 °F 64.0 °F 93% 29.79 in 10.0 mi WNW 5.8 mph - N/A   Partly Cloudy